| time (UTC) | temp C | wind direction | speed KPH | gust KPH | rain 1hr cm | rain 24hr cm | rain mn cm | humidity % | barometer mb |
| 20260507060550 | 9 | 350 | 0.0 | 0.0 | 0.00 | 0.05 | 0.00 | 90 | 1014.7 |
| 20260507055032 | 8 | 350 | 0.0 | 0.0 | 0.00 | 0.05 | 0.00 | 91 | 1014.5 |
| 20260507053532 | 8 | 350 | 0.0 | 0.0 | 0.00 | 0.05 | 0.00 | 91 | 1014.4 |
| 20260507052009 | 8 | 350 | 0.0 | 0.0 | 0.00 | 0.05 | 0.00 | 90 | 1014.4 |
| 20260507050521 | 8 | 350 | 0.0 | 0.0 | 0.00 | 0.05 | 0.00 | 91 | 1014.1 |
| 20260507045012 | 8 | 350 | 0.0 | 0.0 | 0.00 | 0.05 | 0.00 | 92 | 1014.1 |
| 20260507043504 | 8 | 350 | 0.0 | 0.0 | 0.00 | 0.05 | 0.00 | 92 | 1013.9 |
| 20260507042010 | 8 | 350 | 0.0 | 0.0 | 0.00 | 0.05 | 0.00 | 92 | 1013.8 |
| 20260507040504 | 8 | 350 | 0.0 | 0.0 | 0.00 | 0.05 | 0.00 | 92 | 1013.7 |
| 20260507035006 | 8 | 350 | 0.0 | 0.0 | 0.00 | 0.05 | 0.00 | 92 | 1013.5 |
| 20260507033521 | 8 | 350 | 0.0 | 0.0 | 0.00 | 0.05 | 0.00 | 92 | 1013.4 |
| 20260507032006 | 8 | 350 | 0.0 | 0.0 | 0.00 | 0.05 | 0.00 | 91 | 1013.4 |
| 20260507030507 | 8 | 350 | 0.0 | 0.0 | 0.00 | 0.05 | 0.00 | 91 | 1013.4 |
| 20260507025012 | 8 | 350 | 0.0 | 0.0 | 0.00 | 0.08 | 0.00 | 91 | 1013.3 |
| 20260507023506 | 8 | 350 | 0.0 | 0.0 | 0.00 | 0.08 | 0.00 | 91 | 1013.3 |
| 20260507022005 | 8 | 350 | 0.0 | 0.0 | 0.00 | 0.08 | 0.00 | 90 | 1013.3 |
| 20260507013520 | 8 | 350 | 0.0 | 0.0 | 0.00 | 0.08 | 0.00 | 89 | 1012.9 |
| 20260507010503 | 8 | 350 | 0.0 | 0.0 | 0.00 | 0.10 | 0.00 | 89 | 1012.9 |
| 20260507005001 | 8 | 350 | 0.0 | 0.0 | 0.00 | 0.10 | 0.00 | 87 | 1012.9 |
| 20260507003456 | 8 | 350 | 0.0 | 0.0 | 0.00 | 0.10 | 0.00 | 87 | 1012.9 |
| 20260506234929 | 9 | 350 | 0.0 | 0.0 | 0.00 | 0.13 | 0.00 | 85 | 1012.7 |
| 20260506231926 | 9 | 350 | 0.0 | 0.0 | 0.00 | 0.15 | 0.00 | 84 | 1012.7 |
| 20260506230418 | 9 | 350 | 0.0 | 0.0 | 0.00 | 0.15 | 0.00 | 84 | 1012.5 |
| 20260506224908 | 9 | 350 | 0.0 | 0.0 | 0.00 | 0.15 | 0.00 | 83 | 1012.3 |
| 20260506223407 | 9 | 350 | 0.0 | 0.0 | 0.00 | 0.18 | 0.00 | 83 | 1012.1 |
| 20260506221906 | 9 | 350 | 0.0 | 0.0 | 0.00 | 0.20 | 0.00 | 83 | 1012.1 |
| 20260506220402 | 9 | 350 | 0.0 | 0.0 | 0.00 | 0.23 | 0.00 | 83 | 1012.0 |
| 20260506214903 | 9 | 350 | 0.0 | 0.0 | 0.00 | 0.23 | 0.23 | 83 | 1012.0 |
| 20260506213354 | 9 | 350 | 0.0 | 0.0 | 0.00 | 0.23 | 0.23 | 84 | 1012.0 |
| 20260506211845 | 9 | 350 | 0.0 | 0.0 | 0.00 | 0.25 | 0.23 | 84 | 1011.9 |
| 20260506210339 | 9 | 350 | 0.0 | 0.0 | 0.00 | 0.28 | 0.23 | 84 | 1011.8 |
| 20260506204835 | 10 | 350 | 0.0 | 0.0 | 0.00 | 0.28 | 0.23 | 84 | 1011.7 |
| 20260506200331 | 10 | 53 | 1.6 | 9.7 | 0.00 | 0.33 | 0.23 | 82 | 1011.5 |
| 20260506194821 | 9 | 5 | 1.6 | 8.0 | 0.00 | 0.33 | 0.23 | 82 | 1011.4 |
| 20260506193318 | 9 | 355 | 0.0 | 0.0 | 0.00 | 0.33 | 0.23 | 81 | 1011.2 |
| 20260506191816 | 9 | 355 | 0.0 | 0.0 | 0.00 | 0.33 | 0.23 | 80 | 1010.9 |
| 20260506190304 | 10 | 355 | 0.0 | 8.0 | 0.00 | 0.36 | 0.23 | 77 | 1010.7 |
| 20260506184805 | 10 | 350 | 0.0 | 3.2 | 0.00 | 0.36 | 0.23 | 75 | 1010.7 |
| 20260506183302 | 11 | 350 | 0.0 | 6.4 | 0.00 | 0.36 | 0.23 | 73 | 1010.6 |
| 20260506174754 | 12 | 348 | 3.2 | 12.9 | 0.00 | 0.38 | 0.23 | 68 | 1009.9 |
| 20260506173248 | 12 | 11 | 1.6 | 9.7 | 0.00 | 0.38 | 0.23 | 68 | 1009.5 |
| 20260506171745 | 12 | 0 | 3.2 | 14.5 | 0.00 | 0.41 | 0.23 | 67 | 1009.4 |
| 20260506170245 | 13 | 63 | 1.6 | 9.7 | 0.00 | 0.41 | 0.23 | 69 | 1009.3 |
| 20260506164744 | 13 | 42 | 1.6 | 9.7 | 0.00 | 0.43 | 0.23 | 70 | 1009.1 |
| 20260506161736 | 13 | 348 | 1.6 | 8.0 | 0.00 | 0.43 | 0.23 | 71 | 1008.9 |
| 20260506160237 | 13 | 5 | 1.6 | 9.7 | 0.00 | 0.43 | 0.23 | 67 | 1009.0 |
| 20260506154716 | 13 | 344 | 1.6 | 12.9 | 0.00 | 0.43 | 0.23 | 65 | 1008.8 |
| 20260506153217 | 13 | 350 | 3.2 | 12.9 | 0.00 | 0.43 | 0.23 | 66 | 1008.9 |
| 20260506151712 | 14 | 340 | 4.8 | 12.9 | 0.00 | 0.43 | 0.23 | 62 | 1009.0 |
| 20260506150212 | 15 | 351 | 1.6 | 12.9 | 0.00 | 0.43 | 0.23 | 65 | 1008.8 |
| 20260506143208 | 15 | 5 | 1.6 | 11.3 | 0.00 | 0.43 | 0.23 | 68 | 1008.7 |
| 20260506141706 | 13 | 350 | 0.0 | 8.0 | 0.00 | 0.43 | 0.23 | 70 | 1008.7 |
| 20260506140202 | 13 | 337 | 0.0 | 8.0 | 0.03 | 0.43 | 0.23 | 72 | 1008.8 |
| 20260506134703 | 13 | 330 | 0.0 | 0.0 | 0.03 | 0.43 | 0.23 | 72 | 1008.9 |
| 20260506133200 | 13 | 329 | 1.6 | 11.3 | 0.03 | 0.43 | 0.23 | 72 | 1008.8 |
| 20260506131703 | 13 | 351 | 1.6 | 12.9 | 0.03 | 0.43 | 0.23 | 73 | 1008.8 |
| 20260506121645 | 12 | 341 | 1.6 | 8.0 | 0.00 | 0.41 | 0.20 | 78 | 1008.6 |
| 20260506114639 | 12 | 347 | 1.6 | 12.9 | 0.00 | 0.41 | 0.20 | 80 | 1008.5 |
| 20260506113137 | 12 | 5 | 1.6 | 11.3 | 0.00 | 0.41 | 0.20 | 82 | 1008.5 |
| 20260506110145 | 12 | 299 | 0.0 | 9.7 | 0.00 | 0.41 | 0.20 | 90 | 1008.5 |
| 20260506103133 | 11 | 296 | 1.6 | 8.0 | 0.00 | 0.41 | 0.20 | 91 | 1008.6 |
| 20260506101632 | 11 | 338 | 1.6 | 9.7 | 0.00 | 0.41 | 0.20 | 93 | 1008.6 |
| 20260506100129 | 10 | 282 | 0.0 | 9.7 | 0.00 | 0.41 | 0.20 | 95 | 1008.5 |
| 20260506094629 | 10 | 302 | 1.6 | 12.9 | 0.00 | 0.41 | 0.20 | 96 | 1008.4 |
| 20260506093129 | 10 | 355 | 1.6 | 11.3 | 0.00 | 0.41 | 0.20 | 96 | 1008.4 |
| 20260506091629 | 10 | 329 | 0.0 | 11.3 | 0.00 | 0.41 | 0.20 | 96 | 1008.3 |
| 20260506090134 | 9 | 338 | 1.6 | 9.7 | 0.00 | 0.41 | 0.20 | 97 | 1008.3 |
| 20260506084619 | 9 | 355 | 0.0 | 11.3 | 0.00 | 0.41 | 0.20 | 97 | 1007.9 |
| 20260506081609 | 8 | 308 | 1.6 | 11.3 | 0.00 | 0.41 | 0.20 | 97 | 1007.8 |
| 20260506080121 | 8 | 348 | 1.6 | 9.7 | 0.00 | 0.41 | 0.20 | 97 | 1007.8 |
| 20260506073107 | 8 | 346 | 1.6 | 9.7 | 0.03 | 0.41 | 0.20 | 97 | 1007.7 |
| 20260506071605 | 8 | 355 | 0.0 | 8.0 | 0.03 | 0.41 | 0.20 | 97 | 1007.6 |
| 20260506061603 | 8 | 34 | 3.2 | 12.9 | 0.00 | 0.38 | 0.18 | 96 | 1007.3 |